Simultaneous Nadir Overpasses (SNOs) Predictions

Prediction of SNOs between NPP and TERRA Satellite Orbit:

Table of predicted SNOs for the next 14.0 days since TLE Epoch: 12/7/2019
Index Date (NPP) Time (NPP) Lat,Lon (NPP) SZA (NPP ) Date (TERRA) Time (TERRA) Lat,Lon (TERRA) SZA (TERRA ) Distance(km) Time Diff (sec)
1 12/08/2019 02:05:39 -69.45, -34.19 88.00 12/08/2019 02:06:46 -69.34, -31.82 88.10 93.62 67
2 12/08/2019 02:56:05 68.36, 134.60 90.91 12/08/2019 02:56:29 68.35, 134.58 90.90 1.41 24
3 12/08/2019 03:46:46 -68.23, -57.92 89.22 12/08/2019 03:45:59 -68.24, -57.93 89.21 1.02 47
4 12/10/2019 18:22:17 -68.62, 82.73 88.57 12/10/2019 18:23:29 -68.56, 83.07 88.63 15.20 72
5 12/10/2019 19:12:58 68.33,-109.59 91.15 12/10/2019 19:12:58 68.34,-109.56 91.15 1.61 0
6 12/10/2019 20:03:39 -68.19, 57.90 88.99 12/10/2019 20:02:29 -68.17, 57.88 89.02 2.77 70
7 12/13/2019 10:39:07 -68.42,-161.25 88.56 12/13/2019 10:40:00 -68.43,-161.20 88.55 1.90 53
8 12/13/2019 11:29:50 68.25, 6.29 91.28 12/13/2019 11:29:28 68.26, 6.24 91.29 2.68 22
9 12/13/2019 12:20:19 -67.46, 174.57 89.51 12/13/2019 12:19:10 -67.49, 172.97 89.49 68.25 69
10 12/16/2019 02:55:58 -68.34, -45.37 88.48 12/16/2019 02:56:29 -68.36, -45.41 88.47 2.42 31
11 12/16/2019 03:46:42 68.22, 122.09 91.40 12/16/2019 03:45:56 68.24, 122.10 91.42 2.06 46
12 12/18/2019 18:22:14 68.68, -97.35 91.96 12/18/2019 18:23:25 68.60, -96.86 91.88 21.45 71
13 12/18/2019 19:12:51 -68.32, 70.44 88.41 12/18/2019 19:12:58 -68.33, 70.44 88.40 1.79 7
14 12/18/2019 20:03:35 68.20,-122.10 91.48 12/18/2019 20:02:25 68.22,-122.05 91.49 2.67 70




NCC Satellite Simultaneous Nadir Overpasses (SNOs) Prediction Service
